Location: *
(43.4667°N, 11.6833°E)
Time: 22:43:29
(UTC+00:00)

CZ-2C R/B - Pass Details

Date: 19 July 2019
Orbit: 784 x 871 km, 98.3° (Epoch: 18 August)

Event Time Altitude Azimuth Distance (km) Brightness Sun altitude
Rises 20:59:36 0° 8° (N) 3,319 6.6 -18.2°
Reaches altitude 10° 21:02:01 10° 3° (N) 2,375 5.8 -18.4°
Maximum altitude 21:07:01 49° 290° (WNW) 1,014 3.4 -18.9°
Drops below altitude 10° 21:11:58 10° 216° (SW) 2,336 4.8 -19.4°
Enters shadow 21:12:44 - 214° (SW) 2,632 5.0 -19.5°
